EHI
11 12 16 15 9 6 5 5 4 4 4 3 3 3 3 2 2 2 3 3 1 0 0 0 1 2 2 1 0 0 0 0 0 0 0 0 0 0 0 0 0 0 0
11 12 14 14 12 9 8 7 6 7 8 7 5 5 5 4 2 2 2 1 0 0 0 0 0 1 1 1 0 0 0 0 0 0 0 0 0 0 0 0 0 0 0
11 13 13 12 12 12 12 10 9 10 11 11 9 9 9 6 3 2 1 1 0 0 0 0 0 1 3 3 1 0 0 0 0 0 0 0 0 0 0 0 0 0 0
11 14 13 10 10 10 10 10 11 13 13 12 11 11 10 7 3 1 1 2 2 2 1 1 1 2 4 4 2 1 1 1 0 0 0 0 0 0 0 0 0 0 0
11 11 9 7 6 6 6 7 11 14 13 10 9 9 10 8 5 2 1 2 3 4 3 2 2 3 3 3 2 1 1 1 0 0 0 0 0 0 0 0 0 0 0
9 7 5 4 4 4 4 6 8 10 9 8 6 6 8 7 6 5 3 2 3 3 2 2 3 4 3 2 3 2 1 1 0 0 0 0 0 0 0 0 0 0 0
4 5 4 2 2 4 5 5 6 6 5 5 6 6 6 5 5 5 4 3 2 2 1 1 3 5 4 3 3 2 0 0 0 0 0 0 0 0 0 0 0 0 0
2 2 2 1 2 4 5 5 5 5 4 4 6 6 4 3 3 3 3 3 3 2 1 1 2 4 4 3 1 1 0 0 0 0 0 0 0 0 0 0 0 0 0
2 1 1 1 1 2 4 5 5 4 3 3 6 6 4 3 3 2 2 3 4 3 2 0 0 1 2 1 1 0 0 0 0 0 0 0 0 0 0 0 0 0 0
4 2 1 1 2 3 4 4 3 2 1 2 4 6 6 5 4 2 2 3 3 3 3 2 1 0 0 1 1 1 0 0 1 0 0 0 0 0 0 0 0 0 0
6 5 3 1 2 3 3 3 2 1 0 0 2 4 5 5 4 1 1 3 3 3 4 4 4 2 1 1 1 1 0 0 0 0 0 0 0 0 0 1 1 0 0
5 5 3 1 1 1 2 1 1 1 0 0 1 2 3 3 2 1 1 2 3 3 3 4 4 4 2 1 1 0 0 0 0 0 0 0 1 1 1 2 1 0 0
3 4 2 0 0 1 0 0 0 1 0 0 0 1 1 1 1 0 0 1 3 3 1 2 3 4 3 3 2 1 0 0 0 0 0 0 1 1 1 1 1 0 0
2 3 1 0 0 0 0 0 0 0 0 0 0 0 0 0 0 0 0 1 2 2 1 1 2 3 3 3 2 1 0 0 0 0 0 0 0 0 0 0 0 0 0
4 3 2 1 0 0 0 0 0 0 0 0 0 0 0 0 0 0 0 0 1 1 0 0 1 3 3 3 2 1 1 0 0 0 0 0 0 0 0 0 0 0 0
3 3 2 1 0 0 0 0 0 1 0 0 0 0 0 0 0 0 0 0 0 0 0 0 1 2 3 3 2 2 1 0 0 0 0 0 0 0 0 0 0 0 0
1 1 2 2 1 0 0 0 0 0 0 0 0 0 0 0 0 0 0 0 0 0 0 0 0 1 2 3 3 2 1 0 0 0 0 0 0 0 0 0 0 0 0
0 1 3 3 2 1 1 1 0 0 0 0 0 0 0 0 0 0 0 0 0 0 0 0 0 0 1 2 2 1 0 0 0 0 0 0 0 0 0 0 0 0 0
1 1 2 2 2 2 2 1 0 0 0 0 0 0 0 0 0 0 0 0 0 0 0 0 0 0 0 1 1 0 0 0 0 0 0 0 0 0 0 0 0 0 0
0 1 1 1 1 2 2 1 0 0 0 0 0 0 0 0 0 0 0 0 0 0 0 0 0 0 0 0 0 0 0 0 0 0 0 0 0 0 0 0 0 0 0
0 0 0 0 0 1 1 0 0 0 0 0 0 0 0 0 0 0 0 0 0 0 0 0 0 0 0 0 0 0 0 0 0 0 0 0 0 0 0 0 0 0 0
0 0 0 0 0 0 0 0 0 0 0 0 0 0 0 0 0 0 0 0 0 0 0 0 0 0 0 0 0 0 0 0 0 0 0 0 0 0 0 0 0 0 0
0 0 0 0 0 0 0 0 0 0 0 0 0 0 0 0 0 0 0 0 0 0 0 0 0 0 0 0 0 0 0 0 0 0 0 0 0 0 0 0 0 0 0
0 0 0 0 0 0 0 0 0 0 0 0 0 0 0 0 0 0 0 0 0 0 0 0 0 0 0 0 0 0 0 0 0 0 0 0 0 0 0 0 0 0 0
0 0 0 0 0 0 0 0 0 0 0 0 0 0 0 0 0 0 0 0 0 0 0 0 0 0 0 0 0 0 0 0 0 0 0 0 0 0 0 0 0 0 0
0 0 0 0 0 0 0 0 0 0 0 0 0 0 0 0 0 0 0 0 0 0 0 0 0 0 0 0 0 0 0 0 0 0 0 0 0 0 0 0 0 0 0
Wind_Speed
3 3 2 2 4 3 3 4 4 4 5 5 6 6 6 5 5 4 2 5 4 5 6 7 8 9 9 9 10 10 10 10 10 10 9 9 10 10 10 10 10 10 10
2 3 3 3 3 3 3 3 4 4 4 4 5 5 5 5 4 4 5 3 5 5 5 6 6 7 8 8 8 9 10 10 10 10 10 10 10 11 11 11 11 11 10
3 3 3 3 3 3 3 3 4 4 4 5 5 5 4 4 4 4 5 5 4 5 4 4 4 4 5 6 7 8 9 10 10 9 10 10 10 10 11 11 11 11 11
3 3 3 2 2 3 3 3 3 4 4 4 4 4 3 3 4 5 5 5 4 3 4 4 3 3 4 5 6 6 6 7 8 8 9 9 10 10 10 10 11 11 11
2 2 2 2 3 3 2 3 2 3 4 4 4 4 4 4 4 5 5 5 4 3 3 4 5 4 4 4 4 4 4 4 5 7 8 9 10 10 11 11 11 11 12
1 2 1 1 3 2 2 2 3 3 3 3 4 3 3 3 3 3 4 4 3 4 4 4 4 4 4 3 3 3 3 4 4 5 7 7 8 9 10 10 11 11 11
0 2 2 1 2 2 3 3 4 4 3 2 4 3 3 4 3 2 3 3 3 3 2 3 2 2 3 5 3 2 2 3 3 5 5 6 5 5 7 8 9 10 11
1 1 1 2 2 2 2 3 3 4 3 3 3 3 3 4 4 3 3 3 2 2 2 2 1 1 1 1 3 2 1 2 4 4 4 4 5 4 5 7 9 9 10
1 2 2 2 2 3 2 3 4 4 4 3 3 3 3 3 1 2 2 2 2 1 1 1 1 1 2 1 2 2 1 2 3 4 3 3 4 4 5 6 8 9 9
0 1 1 2 3 3 3 4 3 4 5 4 3 3 4 3 3 2 3 2 2 2 1 1 1 1 1 1 2 2 1 1 2 2 3 3 3 4 5 5 6 7 8
0 1 2 2 3 3 3 4 3 4 4 5 4 3 4 3 4 4 3 2 2 2 1 2 1 1 1 1 1 2 2 1 1 1 2 3 3 4 5 5 6 7 7
1 0 2 2 3 3 3 3 4 4 4 5 5 4 4 4 3 3 4 4 3 2 2 1 2 1 1 0 2 4 3 2 2 2 3 4 4 5 5 6 7 7 7
1 1 2 3 3 3 3 4 4 4 4 5 5 4 4 4 3 3 4 4 2 2 2 2 1 1 1 1 2 4 5 4 4 5 5 5 5 5 5 6 6 6 7
1 2 2 3 3 3 4 4 4 4 3 4 5 5 4 4 3 4 4 4 3 3 3 3 1 1 1 1 3 2 4 5 5 5 5 5 5 5 5 5 6 6 6
1 2 2 3 3 3 3 4 4 4 3 4 4 5 5 3 4 4 4 4 4 4 3 3 2 2 1 1 2 2 3 5 5 5 5 5 5 5 5 5 6 6 6
1 2 2 2 3 3 3 4 4 2 3 3 3 4 4 3 3 3 4 4 5 4 2 1 2 2 2 2 3 2 3 6 5 4 4 4 4 4 4 5 6 6 6
1 2 2 2 3 3 3 3 3 3 2 2 3 3 3 3 3 2 3 4 4 4 3 1 1 2 2 3 3 2 3 3 4 5 4 4 4 4 4 5 5 5 6
1 1 2 2 3 3 3 3 3 3 2 2 3 3 3 2 2 3 2 3 3 2 3 3 2 2 2 3 3 3 2 2 3 6 5 4 4 4 4 4 5 5 5
1 2 2 2 3 3 3 3 3 3 2 3 2 3 3 3 3 2 3 2 2 2 2 3 2 2 2 2 3 3 3 2 2 6 6 6 5 5 4 4 5 5 5
1 2 2 2 3 3 3 3 3 2 2 2 2 2 2 2 2 2 2 2 2 2 3 3 3 3 3 3 3 3 3 3 2 3 4 4 6 6 5 5 5 6 6
1 2 2 2 2 2 4 4 3 2 2 2 2 2 2 3 4 3 2 2 2 2 3 3 3 3 3 4 3 3 3 3 2 2 3 4 5 5 6 7 8 7 7
2 2 2 2 2 3 6 6 5 2 2 2 2 2 1 0 1 0 1 3 3 2 2 2 3 3 4 4 3 3 3 4 3 3 2 2 2 3 3 4 7 9 9
1 1 2 2 3 4 4 5 6 3 1 2 2 2 1 2 1 1 2 2 1 1 1 2 3 3 4 3 3 4 3 2 1 3 2 2 2 3 3 3 9 9 9
1 1 1 2 2 4 3 4 6 2 1 2 2 2 2 2 3 2 2 2 2 2 0 2 2 2 2 2 3 2 2 3 2 2 2 2 2 2 3 4 10 10 10
1 1 2 2 2 3 3 4 6 0 1 2 2 3 3 3 5 4 1 3 4 3 4 5 4 3 3 1 1 2 3 4 3 3 3 2 2 2 3 3 7 12 10
0 1 2 2 2 3 3 4 6 1 1 1 2 2 4 4 4 5 1 2 3 3 3 4 4 3 4 4 4 4 3 2 2 2 3 2 2 2 2 3 3 6 8
Wind_Direction
229 229 239 250 256 249 234 242 251 251 247 244 251 251 252 256 265 268 231 166 207 232 233 232 227 224 222 222 224 220 221 224 226 224 221 220 221 221 220 218 212 206 204
248 255 244 245 256 263 269 258 250 250 251 255 254 253 260 262 258 266 274 206 191 214 233 234 229 226 226 226 229 229 225 225 227 227 225 224 225 223 221 219 215 210 206
242 250 257 249 257 261 255 255 257 256 250 246 247 250 249 261 264 255 264 270 235 193 206 226 226 214 220 226 229 230 228 226 227 228 228 227 226 224 221 220 217 213 208
254 262 269 269 278 267 263 265 262 259 258 259 254 254 250 244 247 243 247 248 258 248 197 191 205 202 205 217 226 227 230 226 224 228 232 234 232 227 221 218 217 213 208
262 268 275 295 277 271 273 278 279 276 265 262 257 242 245 240 238 241 247 253 252 257 254 171 178 184 197 212 219 217 214 226 230 230 232 236 234 227 221 220 218 213 208
286 292 264 284 280 273 275 282 278 266 269 264 265 259 250 244 238 241 248 244 235 238 246 243 201 179 178 195 205 214 223 235 236 245 244 241 236 226 221 217 216 211 210
309 291 306 298 285 289 292 286 277 258 254 257 257 252 235 224 214 221 242 251 237 233 241 242 242 227 177 174 177 189 219 234 236 243 247 248 242 226 213 207 206 204 204
288 270 306 288 293 282 273 288 282 287 276 254 267 268 246 215 198 206 212 210 225 229 228 235 249 232 247 186 139 178 236 251 244 242 243 243 234 211 202 199 198 198 199
275 312 299 305 301 286 292 297 292 285 283 272 267 273 273 265 217 187 204 204 203 218 230 246 234 218 215 201 184 159 220 265 255 248 239 220 208 196 196 200 197 199 196
306 324 313 304 296 294 297 280 300 293 279 274 261 259 276 297 265 235 205 193 196 225 243 253 231 213 218 189 152 130 160 256 261 256 222 205 203 191 190 191 189 188 184
221 299 303 302 294 291 300 301 297 290 285 282 276 261 255 249 248 255 250 214 213 216 217 237 238 247 258 200 174 97 113 134 287 247 189 178 167 154 160 164 164 169 174
202 303 300 306 294 302 300 291 282 275 281 283 275 265 262 263 252 252 258 241 223 206 217 228 226 218 230 175 80 86 100 106 101 97 111 126 135 141 148 152 156 163 164
299 1 320 307 306 305 296 292 283 286 282 277 269 267 266 269 274 269 264 258 238 210 203 215 209 200 202 121 102 106 108 104 98 96 98 109 118 126 134 144 152 157 158
333 337 300 300 305 304 299 293 282 278 277 276 274 273 265 261 262 260 266 264 246 223 201 190 175 179 159 124 90 173 118 108 100 101 99 101 110 118 125 132 136 135 139
301 302 297 308 315 311 305 291 286 284 275 271 269 260 258 254 256 262 264 260 257 247 218 170 176 167 172 130 137 161 122 112 113 109 104 102 105 111 119 121 119 118 120
336 316 321 337 329 323 317 301 291 293 284 284 288 283 266 262 254 250 256 259 260 263 255 172 159 159 167 160 154 158 125 133 130 120 114 114 113 113 119 124 126 124 122
1 353 346 339 330 326 324 312 311 305 297 299 293 283 276 276 269 259 252 256 258 254 243 203 137 142 167 178 158 153 150 166 139 132 129 127 126 126 126 124 125 129 129
7 17 352 337 330 338 332 322 319 315 313 308 304 302 304 291 276 272 263 256 255 249 231 202 179 168 169 172 163 162 151 150 133 127 136 142 146 144 138 137 138 140 139
28 16 357 340 341 345 336 329 325 323 322 322 318 311 308 299 281 280 274 262 249 236 221 194 181 170 165 161 163 154 144 144 149 144 147 154 154 154 157 161 161 160 160
39 9 358 352 349 351 351 343 339 344 334 329 333 328 313 304 293 274 267 262 242 220 201 186 178 174 166 165 178 168 163 166 166 152 141 147 150 161 171 174 176 181 183
40 15 1 4 4 1 5 354 339 343 341 343 350 352 8 13 7 332 307 287 234 213 198 180 176 177 167 176 185 186 167 158 157 178 167 167 171 181 179 186 194 197 200
38 11 3 19 17 25 22 356 330 332 352 0 359 359 38 104 100 121 356 349 332 251 208 195 183 174 173 181 176 180 178 178 163 160 197 179 186 190 193 192 174 188 201
39 4 10 28 35 44 19 351 333 325 16 24 10 347 4 44 298 124 149 165 91 26 290 246 177 175 175 179 182 186 193 204 126 140 205 186 192 207 213 167 165 190 204
33 2 17 31 37 52 24 348 324 313 43 49 21 0 18 19 15 358 106 106 101 91 117 193 155 174 159 168 202 195 157 152 155 179 217 228 201 210 213 186 173 194 208
15 8 41 35 37 53 26 342 317 6 71 63 42 27 18 47 25 344 102 110 108 102 76 69 64 85 85 80 300 214 189 192 176 164 191 246 226 228 227 213 180 188 206
46 25 56 36 37 40 39 349 321 295 71 75 82 79 57 40 21 345 29 110 118 119 124 131 133 152 168 173 215 245 238 221 189 162 154 240 238 240 239 218 195 188 207